Location: Baix
(44.7118°N, 4.7648°E)
Time: 03:10:50
(UTC+00:00)

Cosmos 2322 Rocket - Pass Details

Date: 05 December 2022
Orbit: 833 x 849 km, 71.0° (Epoch: 03 February)

Event Time Altitude Azimuth Distance (km) Brightness Sun altitude
Rises 16:43:37 0° 326° (NW) 3,390 5.5 -7.6°
Reaches altitude 10° 16:46:16 10° 317° (NW) 2,451 4.9 -8.0°
Maximum altitude 16:51:13 33° 255° (WSW) 1,371 4.2 -8.8°
Drops below altitude 10° 16:56:09 10° 193° (SSW) 2,437 5.1 -9.6°
Sets 16:58:47 0° 184° (S) 3,368 5.7 -10.1°
